Terminal Aerodrome Forecast
Issued by NWS

Home | Current Version | Previous Version | Text Only | Print | Product List | Glossary On
Versions: 1 2 3 4 5 6 7 8 9 10 11 12 13 14 15 16 17 18 19 20 21 22 23 24 25 26 27 28 29 30 31 32 33 34 35 36 37 38 39 40 41 42 43 44 45 46 47 48 49 50
000
FTUS46 KPQR 301608 AAB
TAFONP
TAF AMD
KONP 301608Z 3016/0112 00000KT 6SM BR VCSH SCT020 OVC050
      TEMPO 3016/3020 5SM -RA BR BKN020
     FM010100 34006KT P6SM BKN060
     FM010900 VRB02KT 4SM BR SCT005=

USA.gov is the U.S. government's official web portal to all federal, state and local government web resources and services.